Location: Peach Mountain Observatory
(42.3967°N, 83.9367°W)
Time: 01:41:54
(UTC-05:00)

A-11 Canister half - All Passes

Search period start: 24 January 2020 00:00
Search period end: 03 February 2020 00:00
Orbit: 1517 x 1683 km, 47.2° (Epoch: 23 January)

Date Brightness Start Highest point End Pass type
(mag) Time Alt. Az. Time Alt. Az. Time Alt. Az.
24 Jan - 00:00:13 10° SW 00:09:26 60° SE 00:18:28 10° ENE night (unlit)
24 Jan - 02:04:56 10° W 02:14:17 73° NNW 02:23:34 10° ENE visible
24 Jan - 04:10:42 10° WNW 04:19:57 69° N 04:29:15 10° E visible
24 Jan - 06:15:51 10° WNW 06:25:02 70° SSW 06:34:20 10° SE visible
24 Jan - 08:21:54 10° W 08:28:43 23° SW 08:35:39 10° S daylight
24 Jan - 21:37:53 10° SSE 21:43:11 16° SE 21:48:24 10° E night (unlit)
24 Jan - 23:37:23 10° SW 23:46:34 57° SE 23:55:33 10° ENE night (unlit)
25 Jan - 01:41:57 10° WSW 01:51:21 75° NNW 02:00:38 10° ENE visible
25 Jan - 03:47:45 10° WNW 03:57:01 68° N 04:06:17 10° E visible
25 Jan - 05:52:56 10° WNW 06:02:09 73° SSW 06:11:28 10° SE visible
25 Jan - 07:58:50 10° W 08:05:54 25° SW 08:13:06 10° S daylight
25 Jan - 21:15:36 10° SSE 21:20:23 15° SE 21:25:06 10° E night (unlit)
25 Jan - 23:14:34 10° SW 23:23:42 54° SE 23:32:38 10° ENE night (unlit)
26 Jan - 01:18:59 10° WSW 01:28:25 77° NNW 01:37:43 10° ENE visible
26 Jan - 03:24:47 10° WNW 03:34:04 67° N 03:43:19 10° E visible
26 Jan - 05:30:01 10° WNW 05:39:15 76° SSW 05:48:36 10° SE visible
26 Jan - 07:35:47 10° WNW 07:43:05 27° SW 07:50:31 10° S daylight
26 Jan - 20:53:27 10° SSE 20:57:35 14° ESE 21:01:40 10° E visible
26 Jan - 22:51:45 10° SSW 23:00:50 51° SE 23:09:42 10° ENE night (unlit)
27 Jan - 00:56:02 10° WSW 01:05:30 78° NNW 01:14:47 10° ENE night (unlit)
27 Jan - 03:01:50 10° WNW 03:11:07 67° N 03:20:21 10° E visible
27 Jan - 05:07:07 10° WNW 05:16:22 79° SSW 05:25:42 10° SE visible
27 Jan - 07:12:45 10° WNW 07:20:17 29° SW 07:27:55 10° S visible
27 Jan - 20:31:28 10° SE 20:34:48 12° ESE 20:38:05 10° ESE visible
27 Jan - 22:28:58 10° SSW 22:37:59 48° SE 22:46:46 10° ENE visible
28 Jan - 00:33:04 10° WSW 00:42:34 80° NNW 00:51:52 10° ENE night (unlit)
28 Jan - 02:38:52 10° WNW 02:48:10 66° N 02:57:24 10° E visible
28 Jan - 04:44:11 10° WNW 04:53:29 82° SSW 05:02:48 10° ESE visible
28 Jan - 06:49:44 10° WNW 06:57:27 31° SW 07:05:17 10° S visible
28 Jan - 20:09:52 10° SE 20:12:00 11° ESE 20:14:08 10° ESE visible
28 Jan - 22:06:11 10° SSW 22:15:08 46° SE 22:23:50 10° ENE visible
29 Jan - 00:10:07 10° WSW 00:19:39 82° NNW 00:28:57 10° ENE night (unlit)
29 Jan - 02:15:55 10° W 02:25:13 66° N 02:34:26 10° E visible
29 Jan - 04:21:16 10° WNW 04:30:34 85° SSW 04:39:54 10° ESE visible
29 Jan - 06:26:44 10° WNW 06:34:38 33° SW 06:42:38 10° SSE visible
29 Jan - 21:43:26 10° SSW 21:52:17 43° SE 22:00:54 10° ENE visible
29 Jan - 23:47:10 10° WSW 23:56:43 85° NNW 00:06:03 10° ENE night (unlit)
30 Jan - 01:52:56 10° W 02:02:16 66° N 02:11:29 10° E visible
30 Jan - 03:58:21 10° WNW 04:07:41 87° SSW 04:17:00 10° ESE visible
30 Jan - 06:03:44 10° WNW 06:11:48 35° SW 06:19:57 10° SSE visible
30 Jan - 21:20:40 10° SSW 21:29:26 41° SE 21:37:56 10° ENE visible
30 Jan - 23:24:12 10° WSW 23:33:47 87° NNW 23:43:08 10° ENE visible
31 Jan - 01:29:58 10° W 01:39:19 66° N 01:48:32 10° E visible
31 Jan - 03:35:26 10° WNW 03:44:46 90° NNE 03:54:05 10° ESE visible
31 Jan - 05:40:46 10° WNW 05:48:59 37° SW 05:57:17 10° SSE visible
31 Jan - 20:57:55 10° SSW 21:06:34 39° SE 21:14:58 10° ENE visible
31 Jan - 23:01:15 10° WSW 23:10:53 90° N 23:20:14 10° ENE visible
01 Feb - 01:06:59 10° W 01:16:22 66° N 01:25:35 10° E night (unlit)
01 Feb - 03:12:30 10° WNW 03:21:52 87° NNE 03:31:10 10° ESE visible
01 Feb - 05:17:47 10° WNW 05:26:09 40° SW 05:34:34 10° SSE visible
01 Feb - 20:35:12 10° SSW 20:43:44 36° SE 20:52:01 10° ENE visible
01 Feb - 22:38:20 10° WSW 22:47:57 88° SSE 22:57:19 10° ENE visible
02 Feb - 00:44:00 10° W 00:53:24 66° N 01:02:38 10° E night (unlit)
02 Feb - 02:49:35 10° WNW 02:58:57 85° NNE 03:08:15 10° ESE visible
02 Feb - 04:54:50 10° WNW 05:03:19 42° SW 05:11:50 10° SSE visible
02 Feb - 20:12:30 10° SSW 20:20:53 34° SE 20:29:02 10° ENE visible
02 Feb - 22:15:23 10° WSW 22:25:03 85° SSE 22:34:25 10° ENE visible
